TimeEDT,TemperatureF,Dew PointF,Humidity,Sea Level PressureIn,VisibilityMPH,Wind Direction,Wind SpeedMPH,Gust SpeedMPH,PrecipitationIn,Events,Conditions,WindDirDegrees,DateUTC
12:54 AM,37.0,33.1,86,30.12,10.0,East,3.5,-,N/A,,Clear,90,2013-03-12 04:54:00
1:54 AM,36.0,33.1,89,30.11,10.0,ESE,3.5,-,N/A,,Clear,110,2013-03-12 05:54:00
2:54 AM,37.0,35.1,93,30.10,10.0,Calm,Calm,-,N/A,,Clear,0,2013-03-12 06:54:00
3:46 AM,37.4,35.6,93,30.08,10.0,Calm,Calm,-,N/A,,Mostly Cloudy,0,2013-03-12 07:46:00
3:54 AM,36.0,34.0,93,30.09,10.0,ESE,4.6,-,N/A,,Overcast,120,2013-03-12 07:54:00
4:54 AM,36.0,35.1,97,30.09,10.0,Calm,Calm,-,N/A,,Mostly Cloudy,0,2013-03-12 08:54:00
5:17 AM,37.4,35.6,93,30.06,10.0,Calm,Calm,-,N/A,,Scattered Clouds,0,2013-03-12 09:17:00
5:35 AM,37.4,35.6,93,30.06,10.0,East,4.6,-,N/A,,Mostly Cloudy,90,2013-03-12 09:35:00
5:54 AM,37.9,36.0,93,30.08,10.0,Calm,Calm,-,N/A,,Overcast,0,2013-03-12 09:54:00
6:40 AM,37.4,37.4,100,30.07,2.5,Calm,Calm,-,N/A,,Overcast,0,2013-03-12 10:40:00
6:54 AM,37.9,37.0,97,30.08,2.0,Calm,Calm,-,N/A,,Overcast,0,2013-03-12 10:54:00
7:01 AM,37.4,37.4,100,30.06,1.2,ESE,3.5,-,N/A,,Overcast,120,2013-03-12 11:01:00
7:15 AM,37.4,37.4,100,30.06,0.5,Calm,Calm,-,N/A,Fog,Fog,0,2013-03-12 11:15:00
7:32 AM,37.4,37.4,100,30.07,0.2,ESE,3.5,-,N/A,Fog,Fog,110,2013-03-12 11:32:00
7:54 AM,37.9,37.9,100,30.08,0.2,Calm,Calm,-,N/A,Fog,Fog,0,2013-03-12 11:54:00
8:54 AM,37.9,37.9,100,30.07,0.2,East,4.6,-,0.01,Fog-Rain,Light Rain,100,2013-03-12 12:54:00
9:54 AM,39.0,39.0,100,30.05,0.2,Calm,Calm,-,0.00,Fog,Fog,0,2013-03-12 13:54:00
10:36 AM,39.2,39.2,100,30.03,0.5,SE,4.6,-,0.03,Fog-Rain,Light Rain,130,2013-03-12 14:36:00
10:44 AM,39.2,39.2,100,30.03,1.5,ESE,3.5,-,0.03,Rain,Light Rain,120,2013-03-12 14:44:00
10:54 AM,39.9,39.9,100,30.04,2.0,SE,3.5,-,0.04,Rain,Light Rain,130,2013-03-12 14:54:00
11:01 AM,39.2,39.2,100,30.03,1.8,Calm,Calm,-,0.01,Rain,Light Rain,0,2013-03-12 15:01:00
11:05 AM,39.2,39.2,100,30.03,1.2,Calm,Calm,-,0.02,Rain,Light Rain,0,2013-03-12 15:05:00
11:14 AM,39.2,39.2,100,30.02,0.5,ESE,3.5,-,0.03,Fog-Rain,Light Rain,110,2013-03-12 15:14:00
11:29 AM,41.0,41.0,100,30.01,1.5,Calm,Calm,-,0.04,Rain,Light Rain,0,2013-03-12 15:29:00
11:33 AM,41.0,41.0,100,30.01,2.5,Calm,Calm,-,0.04,Rain,Light Rain,0,2013-03-12 15:33:00
11:41 AM,41.0,41.0,100,30.01,6.0,Calm,Calm,-,0.05,Rain,Light Rain,0,2013-03-12 15:41:00
11:54 AM,42.1,41.0,96,30.02,5.0,Calm,Calm,-,0.06,Rain,Light Rain,0,2013-03-12 15:54:00
12:09 PM,42.8,42.8,100,30.00,1.5,Calm,Calm,-,0.00,Rain,Light Rain,0,2013-03-12 16:09:00
12:16 PM,42.8,41.0,93,30.00,1.0,Calm,Calm,-,0.00,Rain,Light Rain,0,2013-03-12 16:16:00
12:31 PM,42.8,41.0,93,29.99,0.2,Calm,Calm,-,0.01,Fog-Rain,Light Rain,0,2013-03-12 16:31:00
12:54 PM,41.0,41.0,100,30.01,0.5,Calm,Calm,-,0.02,Fog-Rain,Light Rain,0,2013-03-12 16:54:00
1:54 PM,41.0,39.9,96,29.97,0.5,NNW,3.5,-,0.04,Fog-Rain,Light Rain,330,2013-03-12 17:54:00
2:10 PM,41.0,41.0,100,29.95,0.2,Calm,Calm,-,0.02,Fog-Rain,Light Rain,0,2013-03-12 18:10:00
2:20 PM,41.0,41.0,100,29.94,0.5,Calm,Calm,-,0.03,Fog-Rain,Light Rain,0,2013-03-12 18:20:00
2:28 PM,41.0,41.0,100,29.94,0.2,Calm,Calm,-,0.04,Fog-Rain,Light Rain,0,2013-03-12 18:28:00
2:40 PM,41.0,41.0,100,29.93,0.5,NW,4.6,-,0.04,Fog-Rain,Light Rain,310,2013-03-12 18:40:00
2:54 PM,42.1,41.0,96,29.94,0.5,Calm,Calm,-,0.05,Fog-Rain,Light Rain,0,2013-03-12 18:54:00
3:07 PM,42.8,42.8,100,29.92,0.2,Calm,Calm,-,0.00,Fog-Rain,Light Rain,0,2013-03-12 19:07:00
3:49 PM,42.8,42.8,100,29.89,0.5,Calm,Calm,-,0.03,Fog-Rain,Light Rain,0,2013-03-12 19:49:00
3:54 PM,42.1,42.1,100,29.91,0.2,Calm,Calm,-,0.04,Fog-Rain,Light Rain,0,2013-03-12 19:54:00
4:08 PM,44.6,44.6,100,29.89,0.8,Calm,Calm,-,0.03,Rain,Light Rain,0,2013-03-12 20:08:00
4:28 PM,44.6,44.6,100,29.88,1.0,Variable,4.6,-,0.07,Rain,Light Rain,0,2013-03-12 20:28:00
4:36 PM,44.6,44.6,100,29.88,2.0,ESE,4.6,-,0.09,Rain,Light Rain,120,2013-03-12 20:36:00
4:54 PM,44.1,43.0,96,29.89,1.5,ESE,5.8,-,0.12,Rain,Light Rain,120,2013-03-12 20:54:00
5:06 PM,44.6,42.8,93,29.87,1.0,ESE,6.9,-,0.02,Rain,Light Rain,110,2013-03-12 21:06:00
5:20 PM,44.6,44.6,100,29.86,2.0,SE,3.5,-,0.04,Rain,Light Rain,140,2013-03-12 21:20:00
5:30 PM,44.6,42.8,93,29.85,1.2,ESE,4.6,-,0.06,Rain,Light Rain,120,2013-03-12 21:30:00
5:40 PM,44.6,44.6,100,29.85,1.8,SE,5.8,-,0.07,Rain,Light Rain,130,2013-03-12 21:40:00
5:54 PM,44.1,44.1,100,29.86,1.0,ESE,4.6,-,0.09,Rain,Light Rain,120,2013-03-12 21:54:00
6:00 PM,44.6,44.6,100,29.85,2.0,ESE,8.1,-,0.02,Rain,Light Rain,110,2013-03-12 22:00:00
6:13 PM,44.6,42.8,93,29.84,1.2,ESE,6.9,-,0.04,Rain,Light Rain,110,2013-03-12 22:13:00
6:29 PM,44.6,42.8,93,29.83,1.5,ESE,5.8,-,0.08,Rain,Light Rain,120,2013-03-12 22:29:00
6:37 PM,44.6,42.8,93,29.83,3.0,SE,4.6,-,0.09,Rain,Light Rain,140,2013-03-12 22:37:00
6:54 PM,44.1,44.1,100,29.84,2.5,ESE,5.8,-,0.13,Rain,Light Rain,120,2013-03-12 22:54:00
7:02 PM,44.6,44.6,100,29.82,1.5,ESE,5.8,-,0.01,Rain,Light Rain,110,2013-03-12 23:02:00
7:14 PM,42.8,42.8,100,29.81,0.8,East,6.9,-,0.04,Rain,Light Rain,100,2013-03-12 23:14:00
9:31 PM,44.6,44.6,100,29.73,1.8,ESE,6.9,-,0.08,Rain,Rain,110,2013-03-13 01:31:00
9:40 PM,46.4,44.6,93,29.72,3.0,SE,4.6,-,0.08,Rain,Light Rain,130,2013-03-13 01:40:00
9:54 PM,46.9,46.0,97,29.73,8.0,SSE,5.8,-,0.09,Rain,Light Rain,160,2013-03-13 01:54:00
10:21 PM,46.4,44.6,93,29.72,5.0,Calm,Calm,-,0.00,Rain,Light Rain,0,2013-03-13 02:21:00
10:35 PM,44.6,42.8,93,29.72,1.8,NW,4.6,-,0.00,,Overcast,320,2013-03-13 02:35:00
10:54 PM,44.1,44.1,100,29.73,1.5,Calm,Calm,-,0.01,Rain,Light Rain,0,2013-03-13 02:54:00
11:08 PM,42.8,42.8,100,29.71,1.0,Calm,Calm,-,0.01,Rain,Light Rain,0,2013-03-13 03:08:00
11:54 PM,42.1,42.1,100,29.71,1.0,Calm,Calm,-,0.02,,Overcast,0,2013-03-13 03:54:00